Rockingham, NC

3:37 AM EDT on July 22, 2017 (GMT -0400)
Rockingham

Weather History for KRCZ - March, 2014

Change the Weather History Date:

Friday, March 14, 2014

  Actual Average (KHFF) Record (KHFF)
Temperature  
Mean Temperature 43 °F -  
Max Temperature 62 °F 61 °F 82 °F (2016)
Min Temperature 24 °F 41 °F 22 °F (2014)
Degree Days  
Heating Degree Days 22    
Moisture  
Dew Point 21 °F    
Average Humidity 47    
Maximum Humidity 89    
Minimum Humidity 17    
Precipitation  
Precipitation 0.00 in - - ()
Sea Level Pressure  
Sea Level Pressure 30.24 in    
Wind  
Wind Speed 4 mph (South)    
Max Wind Speed 17 mph    
Max Gust Speed 23 mph    
Visibility 10 miles    
Events      
Averages and records for this station are not official NWS values.
T = Trace of Precipitation, MM = Missing Value Source: NWS Daily Summary

Daily Weather History Graph

Daily Weather History Graph

Search for Another Location

Airport or City:

Trip Planner

Search our weather history database for the weather conditions in past years. The results will help you decide how hot, cold, wet, or windy it might be!

Date:

Astronomy

Mar. 14, 2014 Rise Set
Actual Time 7:31 AM EDT 7:25 PM EDT
Civil Twilight 7:05 AM EDT 7:51 PM EDT
Nautical Twilight 6:36 AM EDT 8:20 PM EDT
Astronomical Twilight 6:07 AM EDT 8:49 PM EDT
Moon 5:49 PM EDT (3/14) 6:06 AM EDT (3/14)
Length of Visible Light 12h 45m
Length of Day
11h 54m
Waxing Gibbous, 96% of the Moon is Illuminated
Mar 14
Waxing Gibbous
Mar 16
Full
Mar 23
Last Quarter
Mar 30
New
Apr 7
First Quarter

Hourly Weather History & Observations

Time (EDT) Temp. Windchill Dew Point Humidity Pressure Visibility Wind Dir Wind Speed Gust Speed Precip Events Conditions
12:15 AM 31.3 °F - 20.1 °F 63% 30.24 in 10.0 mi Calm Calm - N/A   Unknown
12:35 AM 30.2 °F - 21.2 °F 69% 30.24 in 10.0 mi Calm Calm - N/A   Unknown
12:55 AM 28.6 °F 24.8 °F 21.6 °F 75% 30.24 in 10.0 mi East 3.5 mph - N/A   Unknown
1:15 AM 30.0 °F - 23.2 °F 76% 30.25 in 10.0 mi Calm Calm - N/A   Unknown
1:35 AM 31.1 °F - 23.9 °F 75% 30.24 in 10.0 mi Calm Calm - N/A   Unknown
1:55 AM 30.7 °F - 22.8 °F 72% 30.25 in 10.0 mi Calm Calm - N/A   Unknown
2:15 AM 28.6 °F - 21.9 °F 76% 30.25 in 10.0 mi Calm Calm - N/A   Unknown
2:35 AM 30.6 °F - 21.0 °F 68% 30.25 in 10.0 mi Calm Calm - N/A   Unknown
2:55 AM 27.1 °F - 22.5 °F 83% 30.25 in 10.0 mi Calm Calm - N/A   Unknown
3:15 AM 27.5 °F 23.6 °F 21.9 °F 80% 30.25 in 10.0 mi ENE 3.5 mph - N/A   Unknown
3:35 AM 26.8 °F 21.4 °F 22.3 °F 83% 30.25 in 10.0 mi ENE 4.6 mph - N/A   Unknown
3:55 AM 27.9 °F - 21.7 °F 78% 30.25 in 10.0 mi Calm Calm - N/A   Unknown
4:15 AM 27.3 °F - 21.4 °F 78% 30.25 in 10.0 mi Calm Calm - N/A   Unknown
4:35 AM 27.5 °F - 22.1 °F 80% 30.26 in 10.0 mi Calm Calm - N/A   Unknown
4:55 AM 26.2 °F 22.1 °F 22.3 °F 85% 30.26 in 10.0 mi SW 3.5 mph - N/A   Unknown
5:15 AM 24.6 °F 17.7 °F 21.7 °F 89% 30.28 in 10.0 mi WSW 5.8 mph - N/A   Unknown
5:35 AM 25.7 °F - 23.0 °F 89% 30.28 in 10.0 mi Calm Calm - N/A   Unknown
5:55 AM 26.1 °F - 23.0 °F 88% 30.29 in 10.0 mi Calm Calm - N/A   Unknown
6:15 AM 25.7 °F - 22.6 °F 88% 30.29 in 10.0 mi Calm Calm - N/A   Unknown
6:35 AM 25.5 °F - 22.5 °F 88% 30.30 in 10.0 mi Calm Calm - N/A   Unknown
6:55 AM 25.2 °F - 22.1 °F 88% 30.30 in 10.0 mi Calm Calm - N/A   Unknown
7:15 AM 25.2 °F - 21.2 °F 85% 30.30 in 10.0 mi Calm Calm - N/A   Unknown
7:35 AM 25.5 °F - 21.4 °F 84% 30.30 in 10.0 mi Calm Calm - N/A   Unknown
7:55 AM 27.5 °F - 21.6 °F 78% 30.31 in 10.0 mi Calm Calm - N/A   Unknown
8:15 AM 28.4 °F - 23.0 °F 80% 30.32 in 10.0 mi Calm Calm - N/A   Unknown
8:35 AM 30.6 °F - 25.3 °F 81% 30.32 in 10.0 mi Calm Calm - N/A   Unknown
8:55 AM 32.5 °F - 25.7 °F 76% 30.32 in 10.0 mi Calm Calm - N/A   Unknown
9:15 AM 37.6 °F - 23.2 °F 56% 30.33 in 10.0 mi Calm Calm - N/A   Unknown
9:35 AM 41.7 °F 38.8 °F 16.5 °F 36% 30.33 in 10.0 mi SSE 4.6 mph - N/A   Unknown
9:55 AM 44.2 °F 41.8 °F 15.8 °F 32% 30.33 in 10.0 mi South 4.6 mph - N/A   Unknown
10:15 AM 46.6 °F - 13.1 °F 26% 30.34 in 10.0 mi South 9.2 mph - N/A   Unknown
10:35 AM 47.5 °F - 12.0 °F 24% 30.33 in 10.0 mi SSE 9.2 mph - N/A   Unknown
10:55 AM 49.1 °F - 12.6 °F 23% 30.33 in 10.0 mi South 10.4 mph - N/A   Unknown
11:15 AM 49.5 °F - 12.6 °F 23% 30.33 in 10.0 mi SSE 9.2 mph - N/A   Unknown
11:35 AM 50.9 °F - 12.6 °F 22% 30.34 in 10.0 mi South 9.2 mph - N/A   Unknown
11:55 AM 52.3 °F - 13.8 °F 22% 30.34 in 10.0 mi South 9.2 mph - N/A   Unknown
12:15 PM 53.6 °F - 14.7 °F 21% 30.33 in 10.0 mi SW 10.4 mph - N/A   Unknown
12:35 PM 54.1 °F - 15.6 °F 22% 30.33 in 10.0 mi South 5.8 mph - N/A   Unknown
12:55 PM 55.0 °F - 17.1 °F 23% 30.32 in 10.0 mi SSW 9.2 mph - N/A   Unknown
1:15 PM 55.6 °F - 16.2 °F 21% 30.30 in 10.0 mi SSW 6.9 mph - N/A   Unknown
1:35 PM 56.7 °F - 16.2 °F 20% 30.30 in 10.0 mi SSW 9.2 mph - N/A   Unknown
1:55 PM 58.8 °F - 16.0 °F 19% 30.28 in 10.0 mi South 10.4 mph 18.4 mph N/A   Unknown
2:15 PM 58.6 °F - 13.6 °F 17% 30.26 in 10.0 mi South 12.7 mph 18.4 mph N/A   Unknown
2:35 PM 59.9 °F - 15.4 °F 18% 30.25 in 10.0 mi South 10.4 mph 17.3 mph N/A   Unknown
2:55 PM 59.9 °F - 15.4 °F 18% 30.24 in 10.0 mi South 8.1 mph 18.4 mph N/A   Unknown
3:15 PM 61.3 °F - 16.7 °F 18% 30.22 in 10.0 mi SSW 13.8 mph 20.7 mph N/A   Unknown
3:35 PM 61.2 °F - 15.6 °F 17% 30.20 in 10.0 mi SSE 12.7 mph 18.4 mph N/A   Unknown
3:55 PM 61.7 °F - 17.2 °F 18% 30.19 in 10.0 mi South 12.7 mph 17.3 mph N/A   Unknown
4:15 PM 61.5 °F - 17.8 °F 18% 30.18 in 10.0 mi South 11.5 mph 20.7 mph N/A   Unknown
4:35 PM 61.7 °F - 18.0 °F 18% 30.17 in 10.0 mi SSE 13.8 mph 23.0 mph N/A   Unknown
4:55 PM 62.2 °F - 19.2 °F 19% 30.16 in 10.0 mi South 17.3 mph 21.9 mph N/A   Unknown
5:15 PM 61.5 °F - 19.8 °F 20% 30.16 in 10.0 mi SW 13.8 mph 19.6 mph N/A   Unknown
5:35 PM 61.9 °F - 18.7 °F 19% 30.15 in 10.0 mi SW 16.1 mph 23.0 mph N/A   Unknown
5:55 PM 61.9 °F - 19.2 °F 19% 30.14 in 10.0 mi South 13.8 mph 19.6 mph N/A   Unknown
6:15 PM 61.3 °F - 19.0 °F 20% 30.14 in 10.0 mi SSW 11.5 mph 17.3 mph N/A   Unknown
6:35 PM 60.8 °F - 20.8 °F 21% 30.13 in 10.0 mi South 11.5 mph - N/A   Unknown
6:55 PM 59.2 °F - 22.5 °F 24% 30.13 in 10.0 mi South 9.2 mph - N/A   Unknown
7:15 PM 58.5 °F - 23.0 °F 26% 30.13 in 10.0 mi South 8.1 mph - N/A   Unknown
7:35 PM 57.9 °F - 23.4 °F 26% 30.13 in 10.0 mi South 9.2 mph - N/A   Unknown
7:55 PM 56.8 °F - 23.7 °F 28% 30.14 in 10.0 mi South 9.2 mph - N/A   Unknown
8:15 PM 56.3 °F - 24.3 °F 29% 30.14 in 10.0 mi South 6.9 mph - N/A   Unknown
8:35 PM 55.4 °F - 24.6 °F 30% 30.14 in 10.0 mi South 6.9 mph - N/A   Unknown
8:55 PM 54.5 °F - 24.8 °F 32% 30.14 in 10.0 mi SSE 4.6 mph - N/A   Unknown
9:15 PM 53.6 °F - 25.7 °F 34% 30.13 in 10.0 mi South 8.1 mph - N/A   Unknown
9:35 PM 53.6 °F - 27.7 °F 37% 30.13 in 10.0 mi South 6.9 mph - N/A   Unknown
9:55 PM 53.6 °F - 29.3 °F 39% 30.13 in 10.0 mi South 8.1 mph - N/A   Unknown
10:15 PM 53.2 °F - 30.6 °F 42% 30.13 in 10.0 mi South 9.2 mph - N/A   Unknown
10:35 PM 52.5 °F - 31.1 °F 44% 30.13 in 10.0 mi South 8.1 mph - N/A   Unknown
10:55 PM 52.2 °F - 32.0 °F 46% 30.13 in 10.0 mi South 9.2 mph - N/A   Unknown
11:15 PM 52.3 °F - 33.3 °F 48% 30.14 in 10.0 mi SSW 9.2 mph - N/A   Unknown
11:35 PM 52.0 °F - 34.3 °F 51% 30.14 in 10.0 mi SSW 9.2 mph - N/A   Unknown
11:55 PM 51.8 °F - 35.1 °F 53% 30.14 in 10.0 mi SSW 9.2 mph - N/A   Unknown